Regional Weather Roundup
Issued by NWS

Home | Current Version | Previous Version | Text Only | Print | Product List | Glossary On
Versions: 1 2 3 4 5 6 7 8 9 10 11 12 13 14 15 16 17 18 19 20 21 22 23 24 25 26 27 28 29 30 31 32 33 34 35 36 37 38 39 40 41 42 43 44 45 46 47 48 49 50
000
ASUS44 KLUB 290301
RWRTX
WEST TEXAS WEATHER ROUNDUP
NATIONAL WEATHER SERVICE LUBBOCK TX
1000 PM CDT SUN AUG 28 2016

NOTE: "FAIR" INDICATES FEW OR NO CLOUDS BELOW 12,000 FEET WITH NO
SIGNIFICANT WEATHER AND/OR OBSTRUCTIONS TO VISIBILITY.

TXZ004-006>008-010-012-014-016-OKZ002-290400-
TEXAS PANHANDLE/OKLAHOMA PANHANDLE

CITY           SKY/WX    TMP DP  RH WIND       PRES   REMARKS
AMARILLO       CLEAR     70  64  81 SE9       30.17R
BORGER         MOCLDY    72  60  66 SE8       30.16R
CANADIAN       PTCLDY    67  66  96 S3        30.14R
DALHART        CLOUDY    71  63  75 SE8       30.17R
DUMAS          PTCLDY    70  63  78 SE13      30.18R
GUYMON         CLOUDY    68  60  75 SE7       30.13R
HEREFORD       CLOUDY    73  63  69 S7        30.18R
PERRYTON       CLOUDY    68  64  88 S8        30.13R
$$

TXZ026-029-035-045-048-290400-
SOUTHERN PANHANDLE/SOUTH PLAINS/ROLLING PLAINS

CITY           SKY/WX    TMP DP  RH WIND       PRES   REMARKS
CHILDRESS      MOCLDY    77  69  76 SE7       30.09R
LUBBOCK        LGT RAIN  71  66  84 SE13      30.14S
PLAINVIEW      MOCLDY    68  63  83 SE8       30.15R
SNYDER           N/A     76  66  70 CALM      30.12R
$$

TXZ052-054-060>062-072-078-127-140-154-169-290400-
PERMIAN BASIN/CONCHO VALLEY/BIG COUNTRY/EDWARDS PLATEAU

CITY           SKY/WX    TMP DP  RH WIND       PRES   REMARKS
ABILENE        CLEAR     77  70  79 E7        30.08R
BIG SPRING     CLOUDY    78  67  69 E7        30.12R
BROWNWOOD      CLEAR     75  68  78 E5        30.06R
JUNCTION       CLOUDY    80  66  62 E7        30.05R
MIDLAND        CLOUDY    77  65  66 E13       30.09R
ODESSA         MOCLDY    75  66  73 E10       30.10R
SAN ANGELO     PTCLDY    77  68  73 E5        30.05R
SONORA         CLOUDY    75  70  83 SW3       30.12R
SWEETWATER     CLEAR     76  65  70 E5        30.12R
WINK           CLOUDY    79  63  57 SE9       30.04R
$$

TXZ055-058-074-075-080-082-290400-
FAR WEST/SOUTHWEST MOUNTAINS/TRANS PECOS

CITY           SKY/WX    TMP DP  RH WIND       PRES   REMARKS
ALPINE         PTCLDY    65  60  83 CALM      30.24R
DRYDEN           N/A     71  69  93 NE16G26   30.09R
EL PASO        PTCLDY    79  58  48 N12       30.09R
FORT STOCKTON  CLOUDY    71  65  81 SE17G24   30.10R
GUADALUPE PASS CLEAR     70  58  65 NE17      30.21R
MARFA          CLOUDY   N/A N/A N/A E6        30.22R
PECOS          CLOUDY    77  63  62 SE7       30.04R
PRESIDIO       MOCLDY    73  66  80 CALM      30.09R
$$

TXZ014-016-019-021>030-083-290400
TEXAS TECH WEST TEXAS MESONET/TEXAS PANHANDLE/NORTHERN SOUTH PLAINS

CITY           SKY/WX    TMP DP  RH WIND       PRES   REMARKS
ABERNATHY 5ENE   N/A     70  63  80 E14       30.17R
AMARILLO 9NNE    N/A     71  64  79 SE12      30.15R
AMARILLO 7SSE    N/A     69  64  84 SE8       30.19R
AMHERST 1NE      N/A     67  64  90 E3        30.18R
BOOTLEG 11WNW    N/A     63  58  83 W18       30.23R
CANADIAN 6E      N/A     66  64  94 E6        30.13R
CAPROCK CYN SP   N/A     72  68  86 SW6       30.14R
CHILDRESS 2NNE   N/A     78  67  69 SE8       30.10R
CLARENDON 2WSW   N/A     72  67  86 SE5       30.16R
CLAUDE 12SW      N/A     70  65  84 SE5       30.18R
DIMMITT 2NE      N/A     69  62  77 SE6       30.20R
FLOYDADA 2NNE    N/A     68  67  94 SE8       30.16R
FRIONA 2NE       N/A     68  57  67 SE5       30.23R
GOODLETT 3W      N/A     79  66  64 E6        30.07R
HART 3N          N/A     67  63  86 SE3       30.19R
HEREFORD 2NW     N/A     71  59  64 SW9       30.21R
MCLEAN 1E        N/A     67  64  91 E7        30.15R
MEMPHIS 1NE      N/A     74  70  87 N7        30.11R
MULESHOE 2SSW  LGT RAIN  68  63  84 NE6       30.20R
OLTON 6S         N/A     66  63  89 SE3       30.18R
PALO DURO SP     N/A     72  64  75 S6        30.19R
PAMPA 2E         N/A     68  60  75 NW12      30.19R
PLAINVIEW 1S     N/A     70  65  83 SE8       30.17R
SILVERTON 7ESE   N/A     70  66  88 S3        30.15R
TULIA 2ENE       N/A     68  64  88 S7        30.17R
TURKEY 2WSW      N/A     74  69  85 SW5       30.13R
UMBARGER 3NNE    N/A     69  64  83 S9        30.19R
$$

TXZ033>036-039>041-045>048-290400
TEXAS TECH WEST TEXAS MESONET/SOUTH PLAINS

CITY           SKY/WX    TMP DP  RH WIND       PRES   REMARKS
AIKEN 3WSW       N/A     69  67  93 S5        30.18R
ANTON 6SSW       N/A     67  62  82 E8        30.16R
BROWNFIELD 2S    N/A     66  63  90 E15       30.15R
DENVR CTY 7WNW   N/A     68  64  88 E14       30.16R
GAIL 2ESE        N/A     77  65  65 E2        30.12R
LAMESA 2SE       N/A     75  64  69 NE6       30.14R
LEVELLAND 4S     N/A     67  62  83 E15       30.16R
LUBBOCK 3WNW     N/A     70  64  81 SE10G17   30.15R
MORTON 1ENE      N/A     69  64  83 E10       30.18R
ODONNELL 1N    RAIN      67  62  85 N16       30.16R
PLAINS 3N        N/A     71  63  76 E13       30.16
RALLS 1SE        N/A     69  64  84 NW3       30.18R
REESE CENTER     N/A     70  63  79 SE12      30.16R
SEAGRAVES 1SW    N/A     69  65  87 E10G16    30.15R
SEMINOLE 2NNE  HVY RAIN  68  65  90 N18G30    30.17R
SLATON 2NE       N/A     69  66  90 SE10      30.17R
SNYDER 3E        N/A     76  66  71 E7        30.11R
SUNDOWN 8SW      N/A     68  61  80 E14       30.17R
TAHOKA 3NNE      N/A     64  60  87 E16       30.16F
WOLFFORTH 6SSW   N/A     66  60  81 E10       30.16R
$$

TXZ031-032-036>038-042>044-290400-
TEXAS TECH WEST TEXAS MESONET/ROLLING PLAINS

CITY           SKY/WX    TMP DP  RH WIND       PRES   REMARKS
ASPERMONT 3NE    N/A     76  67  73 E6        30.08R
FLUVANNA 3WNW    N/A     73  64  73 NE3       30.13R
GRAHAM 5SSW      N/A     70  64  79 NW12      30.15R
GUTHRIE 10WSW    N/A     74  70  87 CALM      30.09R
HASKELL 1NW      N/A     78  65  64 E3        30.07R
JAYTON 1SSE      N/A     76  67  74 NE3       30.09R
KNOX CITY 3NW    N/A     80  65  59 E7        30.07R
LK A HENRY 1NW   N/A     76  67  75 NE5       30.12R
NORTHFIELD 1S    N/A     74  69  86 S3        30.11R
ODELL 4ENE       N/A     80  68  65 SE8       30.08R
PADUCAH 10SW     N/A     74  71  91 N5        30.10R
POST 1NE         N/A     73  64  75 NW9       30.14R
SEYMOUR 3NW      N/A     77  67  70 E6        30.07R
SPUR 1W          N/A     73  67  80 N2        30.11R
WHITE RVR 6NE    N/A     72  64  76 NW6       30.14R
$$

TXZ052-054-060>062-072-078-127-140-154-169-290400-
TEXAS TECH WEST TEXAS MESONET/PERMIAN BASIN/
CONCHO VALLEY/BIG COUNTRY/EDWARDS PLATEAU

CITY           SKY/WX    TMP DP  RH WIND       PRES   REMARKS
COYANOSA 2N      N/A     78  65  62 SE13      30.07R
JUNCTION 1SSW    N/A     81  66  60 E6        30.06R
MERTZON 3NNE     N/A     76  68  75 NE2       30.09R
SAN ANGELO 7NW   N/A     80  63  57 E3        30.07R
STRLNG CT 4WSW   N/A     76  67  71 E6        30.10R
ST LAWRNCE 5SW   N/A     73  68  84 E7        30.10R
SWEETWATR 11SW   N/A     73  68  85 NE7       30.13R
WALL 1E          N/A     78  65  63 E5        30.08S
$$

TXZ055-058-074-075-080-082-290400-
TEXAS TECH WEST TEXAS MESONET/FAR WEST/SOUTHWEST MOUNTAINS/TRANS PECOS

CITY           SKY/WX    TMP DP  RH WIND       PRES   REMARKS
GUADLPE MTN NP   N/A     69  56  65 N5        30.24S
$$




USA.gov is the U.S. government's official web portal to all federal, state and local government web resources and services.